NSZ2941 LIME-EFHK

Flight info

Callsign NSZ2941
Flight time 2h 37m
Altitude 37000
Route OSKOR M985 TAGIP BRENO BETOS SODRO VEVAS BODLA DEMUR GORPI NEBSI EVADI Y370 DIVAM
Aircraft B38M/M-SDE1FGHILORVWXYZ/HB1

Departure

Time 2026-04-26 12:32
Airport Il Caravaggio International Airport (LIME)

Arrival

Time 2026-04-26 15:10
Airport Helsinki Vantaa Airport (EFHK)
Time Latitude Longitude Altitude Speed Heading
2026-04-26 12:00 45.66804 9.69236 790 ft 0 kts 195°
2026-04-26 12:26 45.66780 9.69226 790 ft 8 kts 199°
2026-04-26 12:26 45.66772 9.69181 790 ft 7 kts 285°
2026-04-26 12:26 45.66793 9.69072 790 ft 14 kts 293°
2026-04-26 12:26 45.66874 9.68982 790 ft 14 kts 340°
2026-04-26 12:27 45.66909 9.69059 790 ft 12 kts 99°
2026-04-26 12:27 45.66887 9.69224 790 ft 23 kts 105°
2026-04-26 12:27 45.66838 9.69485 790 ft 30 kts 103°
2026-04-26 12:27 45.66784 9.69777 790 ft 31 kts 105°
2026-04-26 12:28 45.66728 9.70077 790 ft 31 kts 103°
2026-04-26 12:28 45.66696 9.70252 790 ft 32 kts 104°
2026-04-26 12:28 45.66648 9.70505 790 ft 32 kts 103°
2026-04-26 12:28 45.66592 9.70820 790 ft 33 kts 103°
2026-04-26 12:29 45.66528 9.71133 790 ft 34 kts 112°
2026-04-26 12:29 45.66458 9.71452 790 ft 34 kts 105°
2026-04-26 12:29 45.66454 9.71968 790 ft 25 kts 104°
2026-04-26 12:30 45.66408 9.72217 790 ft 25 kts 104°
2026-04-26 12:30 45.66371 9.72442 790 ft 18 kts 80°
2026-04-26 12:30 45.66408 9.72536 790 ft 9 kts
2026-04-26 12:31 45.66444 9.72515 790 ft 0 kts 284°
2026-04-26 12:31 45.66445 9.72508 790 ft 4 kts 285°
2026-04-26 12:32 45.66508 9.72172 790 ft 74 kts 284°
2026-04-26 12:32 45.66701 9.71131 790 ft 143 kts 285°
2026-04-26 12:32 45.67248 9.67963 1938 ft 168 kts 270°
2026-04-26 12:33 45.66904 9.66401 2600 ft 167 kts 229°
2026-04-26 12:33 45.66053 9.65184 3144 ft 181 kts 220°
2026-04-26 12:33 45.65086 9.63935 3878 ft 190 kts 221°
2026-04-26 12:33 45.64127 9.62644 4726 ft 190 kts 221°
2026-04-26 12:34 45.63158 9.61317 5468 ft 195 kts 221°
2026-04-26 12:34 45.62177 9.59955 6230 ft 198 kts 221°
2026-04-26 12:34 45.61146 9.58549 6891 ft 215 kts 220°
2026-04-26 12:34 45.59995 9.57017 7378 ft 236 kts 216°
2026-04-26 12:35 45.58431 9.56170 7817 ft 252 kts 178°
2026-04-26 12:35 45.56701 9.56777 8398 ft 266 kts 152°
2026-04-26 12:35 45.55209 9.58424 9005 ft 281 kts 127°
2026-04-26 12:35 45.54398 9.60945 9949 ft 283 kts 104°
2026-04-26 12:36 45.54203 9.63792 10543 ft 298 kts 85°
2026-04-26 12:36 45.54738 9.66738 10955 ft 317 kts 71°
2026-04-26 12:36 45.55455 9.69786 11421 ft 331 kts 72°
2026-04-26 12:36 45.56171 9.72898 12185 ft 334 kts 72°
2026-04-26 12:37 45.56896 9.76076 12990 ft 339 kts 72°
2026-04-26 12:37 45.57632 9.79312 13713 ft 346 kts 72°
2026-04-26 12:37 45.58375 9.82590 14453 ft 349 kts 71°
2026-04-26 12:37 45.59126 9.85903 15122 ft 353 kts 71°
2026-04-26 12:38 45.59886 9.89266 15783 ft 357 kts 71°
2026-04-26 12:38 45.60651 9.92660 16468 ft 361 kts 71°
2026-04-26 12:38 45.61425 9.96092 17095 ft 365 kts 71°
2026-04-26 12:38 45.62204 9.99559 17757 ft 368 kts 71°
2026-04-26 12:39 45.62990 10.03059 18391 ft 372 kts 71°
2026-04-26 12:39 45.63783 10.06597 18913 ft 376 kts 71°
2026-04-26 12:39 45.64601 10.10153 19463 ft 378 kts 67°
2026-04-26 12:39 45.65910 10.13413 19984 ft 378 kts 53°
2026-04-26 12:40 45.67415 10.16523 20481 ft 383 kts 54°
2026-04-26 12:40 45.68950 10.19662 20998 ft 385 kts 53°
2026-04-26 12:40 45.70482 10.22765 21535 ft 388 kts 53°
2026-04-26 12:40 45.72055 10.25931 22041 ft 392 kts 53°
2026-04-26 12:41 45.73645 10.29125 22519 ft 395 kts 53°
2026-04-26 12:41 45.75243 10.32336 23042 ft 398 kts 53°
2026-04-26 12:41 45.76859 10.35583 23508 ft 401 kts 53°
2026-04-26 12:41 45.78476 10.38838 23945 ft 403 kts 53°
2026-04-26 12:42 45.80109 10.42129 24293 ft 406 kts 53°
2026-04-26 12:42 45.81755 10.45453 24721 ft 409 kts 53°
2026-04-26 12:42 45.83405 10.48789 25113 ft 412 kts 53°
2026-04-26 12:42 45.85069 10.52157 25521 ft 413 kts 53°
2026-04-26 12:43 45.86736 10.55534 25902 ft 416 kts 53°
2026-04-26 12:43 45.88411 10.58932 26291 ft 418 kts 53°
2026-04-26 12:43 45.90096 10.62354 26655 ft 422 kts 53°
2026-04-26 12:43 45.91784 10.65738 27113 ft 421 kts 49°
2026-04-26 12:44 45.93888 10.68598 27584 ft 415 kts 32°
2026-04-26 12:44 45.96394 10.70615 28061 ft 412 kts 24°
2026-04-26 12:44 45.98969 10.72438 28459 ft 412 kts 23°
2026-04-26 12:44 46.01549 10.74187 28945 ft 411 kts 22°
2026-04-26 12:45 46.04169 10.75924 29243 ft 415 kts 22°
2026-04-26 12:45 46.06803 10.77648 29570 ft 417 kts 22°
2026-04-26 12:45 46.09457 10.79371 29830 ft 421 kts 22°
2026-04-26 12:45 46.12140 10.81109 30180 ft 422 kts 22°
2026-04-26 12:46 46.14824 10.82848 30436 ft 425 kts 21°
2026-04-26 12:46 46.17531 10.84604 30720 ft 427 kts 22°
2026-04-26 12:46 46.20245 10.86364 31021 ft 428 kts 22°
2026-04-26 12:46 46.22971 10.88137 31288 ft 430 kts 22°
2026-04-26 12:47 46.25706 10.89916 31561 ft 432 kts 22°
2026-04-26 12:47 46.28446 10.91700 31827 ft 433 kts 22°
2026-04-26 12:47 46.31202 10.93497 32092 ft 435 kts 22°
2026-04-26 12:47 46.33965 10.95301 32363 ft 437 kts 22°
2026-04-26 12:48 46.35805 10.96503 32531 ft 438 kts 22°
2026-04-26 12:48 46.38590 10.98324 32791 ft 440 kts 22°
2026-04-26 12:48 46.41384 11.00152 32900 ft 442 kts 22°
2026-04-26 12:48 46.44187 11.01989 33151 ft 442 kts 22°
2026-04-26 12:49 46.46997 11.03833 33370 ft 444 kts 22°
2026-04-26 12:49 46.49818 11.05686 33599 ft 446 kts 22°
2026-04-26 12:49 46.52656 11.07552 33843 ft 448 kts 22°
2026-04-26 12:49 46.55497 11.09423 34072 ft 450 kts 22°
2026-04-26 12:50 46.58351 11.11304 34293 ft 451 kts 22°
2026-04-26 12:50 46.61216 11.13194 34498 ft 453 kts 22°
2026-04-26 12:50 46.64093 11.15095 34690 ft 455 kts 22°
2026-04-26 12:50 46.66944 11.16982 34895 ft 456 kts 22°
2026-04-26 12:51 46.69837 11.18898 35077 ft 458 kts 22°
2026-04-26 12:51 46.72733 11.20817 35333 ft 458 kts 22°
2026-04-26 12:51 46.75630 11.22740 35611 ft 457 kts 22°
2026-04-26 12:51 46.78528 11.24666 35859 ft 457 kts 22°
2026-04-26 12:52 46.81416 11.26588 36103 ft 457 kts 22°
2026-04-26 12:52 46.84308 11.28514 36365 ft 456 kts 22°
2026-04-26 12:52 46.87194 11.30439 36550 ft 456 kts 22°
2026-04-26 12:52 46.90085 11.32369 36764 ft 456 kts 22°
2026-04-26 12:53 46.92974 11.34298 36980 ft 456 kts 22°
2026-04-26 12:53 46.95870 11.36196 37140 ft 456 kts 18°
2026-04-26 12:53 46.98917 11.37272 37076 ft 446 kts
2026-04-26 12:53 47.01995 11.37368 37184 ft 443 kts 358°
2026-04-26 12:54 47.05085 11.37400 37136 ft 445 kts 357°
2026-04-26 12:54 47.11284 11.37335 37153 ft 445 kts 356°
2026-04-26 12:55 47.17488 11.37196 37150 ft 445 kts 356°
2026-04-26 12:55 47.23629 11.37048 37189 ft 444 kts 356°
2026-04-26 12:56 47.29821 11.36898 37143 ft 444 kts 356°
2026-04-26 12:56 47.36017 11.36747 37153 ft 445 kts 356°
2026-04-26 12:57 47.42246 11.36595 37173 ft 451 kts 356°
2026-04-26 12:57 47.48516 11.36442 37175 ft 450 kts 355°
2026-04-26 12:58 47.57924 11.36211 37178 ft 450 kts 356°
2026-04-26 12:58 47.64205 11.36057 37193 ft 452 kts 356°
2026-04-26 12:59 47.70493 11.35902 37189 ft 451 kts 356°
2026-04-26 12:59 47.76766 11.35747 37195 ft 451 kts 356°
2026-04-26 13:00 47.83043 11.35591 37210 ft 451 kts 356°
2026-04-26 13:00 47.89323 11.35435 37219 ft 451 kts 356°
2026-04-26 13:01 47.95596 11.35280 37210 ft 451 kts 356°
2026-04-26 13:01 48.01830 11.35124 37216 ft 451 kts 356°
2026-04-26 13:02 48.08107 11.35253 37208 ft 454 kts
2026-04-26 13:02 48.14384 11.36443 37206 ft 454 kts
2026-04-26 13:03 48.20653 11.37633 37212 ft 455 kts
2026-04-26 13:03 48.26941 11.38834 37218 ft 455 kts
2026-04-26 13:04 48.33215 11.40035 37216 ft 455 kts
2026-04-26 13:04 48.39485 11.41238 37218 ft 455 kts
2026-04-26 13:05 48.45762 11.42445 37216 ft 455 kts
2026-04-26 13:05 48.52041 11.43656 37236 ft 455 kts
2026-04-26 13:06 48.58323 11.44870 37213 ft 455 kts
2026-04-26 13:06 48.64597 11.46086 37209 ft 455 kts
2026-04-26 13:07 48.70838 11.47298 37210 ft 455 kts
2026-04-26 13:07 48.77118 11.48522 37215 ft 455 kts
2026-04-26 13:08 48.83402 11.49749 37215 ft 455 kts
2026-04-26 13:08 48.89687 11.50979 37217 ft 455 kts
2026-04-26 13:09 48.95973 11.52213 37230 ft 455 kts
2026-04-26 13:09 49.02261 11.53450 37228 ft 456 kts
2026-04-26 13:10 49.08550 11.54690 37231 ft 456 kts
2026-04-26 13:10 49.14842 11.55934 37234 ft 456 kts
2026-04-26 13:11 49.21147 11.57185 37235 ft 457 kts
2026-04-26 13:11 49.27452 11.58438 37239 ft 457 kts
2026-04-26 13:12 49.33716 11.59686 37247 ft 457 kts
2026-04-26 13:12 49.40021 11.60946 37257 ft 457 kts
2026-04-26 13:13 49.46337 11.62212 37241 ft 457 kts
2026-04-26 13:13 49.52648 11.63479 37238 ft 457 kts
2026-04-26 13:14 49.58972 11.64753 37237 ft 457 kts
2026-04-26 13:14 49.65289 11.66028 37237 ft 458 kts
2026-04-26 13:15 49.71610 11.67307 37239 ft 458 kts
2026-04-26 13:15 49.76868 11.68374 37235 ft 458 kts
2026-04-26 13:16 49.84256 11.69877 37253 ft 458 kts
2026-04-26 13:16 49.90541 11.71159 37245 ft 458 kts
2026-04-26 13:17 50.00023 11.73101 37268 ft 458 kts
2026-04-26 13:18 50.09505 11.75050 37286 ft 458 kts
2026-04-26 13:19 50.18991 11.77007 37288 ft 458 kts
2026-04-26 13:19 50.25314 11.78316 37293 ft 458 kts
2026-04-26 13:20 50.31641 11.79628 37297 ft 458 kts
2026-04-26 13:20 50.37956 11.80942 37297 ft 458 kts
2026-04-26 13:21 50.44268 11.82261 37296 ft 458 kts
2026-04-26 13:21 50.50271 11.85570 37304 ft 464 kts 21°
2026-04-26 13:22 50.56172 11.89732 37300 ft 465 kts 21°
2026-04-26 13:22 50.62069 11.93989 37296 ft 465 kts 21°
2026-04-26 13:23 50.67956 11.98262 37291 ft 465 kts 21°
2026-04-26 13:23 50.73832 12.02541 37303 ft 465 kts 22°
2026-04-26 13:24 50.79711 12.06833 37294 ft 465 kts 22°
2026-04-26 13:24 50.85585 12.11133 37304 ft 465 kts 22°
2026-04-26 13:25 50.91454 12.15441 37302 ft 465 kts 22°
2026-04-26 13:25 50.97326 12.19764 37314 ft 464 kts 22°
2026-04-26 13:26 51.03145 12.24060 37314 ft 464 kts 22°
2026-04-26 13:26 51.09005 12.28399 37313 ft 464 kts 22°
2026-04-26 13:27 51.14859 12.32744 37317 ft 464 kts 22°
2026-04-26 13:27 51.20712 12.37102 37313 ft 464 kts 22°
2026-04-26 13:28 51.26562 12.41469 37312 ft 464 kts 22°
2026-04-26 13:28 51.32412 12.45849 37305 ft 464 kts 22°
2026-04-26 13:29 51.38262 12.50241 37332 ft 464 kts 21°
2026-04-26 13:29 51.44105 12.54641 37311 ft 464 kts 21°
2026-04-26 13:30 51.49953 12.59056 37318 ft 464 kts 21°
2026-04-26 13:30 51.55760 12.63453 37314 ft 464 kts 21°
2026-04-26 13:31 51.61602 12.67888 37327 ft 464 kts 21°
2026-04-26 13:31 51.67399 12.72465 37300 ft 466 kts 28°
2026-04-26 13:32 51.72918 12.78002 37306 ft 467 kts 28°
2026-04-26 13:32 51.78434 12.83579 37310 ft 467 kts 28°
2026-04-26 13:33 51.83941 12.89167 37321 ft 467 kts 28°
2026-04-26 13:33 51.89406 12.94730 37307 ft 466 kts 28°
2026-04-26 13:34 51.94896 13.00333 37309 ft 466 kts 28°
2026-04-26 13:34 52.00386 13.05954 37311 ft 466 kts 28°
2026-04-26 13:35 52.05870 13.11584 37319 ft 466 kts 27°
2026-04-26 13:35 52.11339 13.17215 37305 ft 465 kts 27°
2026-04-26 13:36 52.15881 13.21905 37302 ft 465 kts 27°
2026-04-26 13:36 52.21353 13.27570 37300 ft 466 kts 27°
2026-04-26 13:37 52.26821 13.33248 37325 ft 465 kts 27°
2026-04-26 13:37 52.32275 13.38929 37294 ft 464 kts 27°
2026-04-26 13:38 52.37722 13.44618 37288 ft 465 kts 27°
2026-04-26 13:38 52.43167 13.50323 37295 ft 465 kts 27°
2026-04-26 13:39 52.48582 13.56012 37334 ft 465 kts 27°
2026-04-26 13:39 52.53997 13.61720 37301 ft 460 kts 26°
2026-04-26 13:40 52.59390 13.67421 37308 ft 461 kts 27°
2026-04-26 13:40 52.64785 13.73141 37310 ft 461 kts 27°
2026-04-26 13:41 52.70180 13.78878 37306 ft 461 kts 27°
2026-04-26 13:41 52.75567 13.84622 37312 ft 461 kts 27°
2026-04-26 13:42 52.80955 13.90387 37312 ft 461 kts 27°
2026-04-26 13:42 52.86300 13.96122 37313 ft 461 kts 27°
2026-04-26 13:43 52.91685 14.01916 37345 ft 461 kts 27°
2026-04-26 13:43 52.97052 14.07709 37314 ft 460 kts 27°
2026-04-26 13:44 53.02418 14.13518 37316 ft 460 kts 27°
2026-04-26 13:44 53.07781 14.19342 37311 ft 460 kts 27°
2026-04-26 13:45 53.13149 14.25189 37312 ft 460 kts 27°
2026-04-26 13:45 53.18500 14.31030 37313 ft 459 kts 26°
2026-04-26 13:46 53.23833 14.36871 37313 ft 459 kts 26°
2026-04-26 13:46 53.29290 14.42247 37320 ft 448 kts 15°
2026-04-26 13:47 53.35000 14.46400 37304 ft 450 kts 17°
2026-04-26 13:47 53.40733 14.50604 37315 ft 448 kts 17°
2026-04-26 13:48 53.46447 14.54799 37309 ft 448 kts 17°
2026-04-26 13:48 53.52160 14.59004 37314 ft 448 kts 17°
2026-04-26 13:49 53.57875 14.63224 37297 ft 448 kts 17°
2026-04-26 13:49 53.63579 14.67448 37302 ft 447 kts 17°
2026-04-26 13:50 53.69264 14.71670 37300 ft 446 kts 17°
2026-04-26 13:50 53.74926 14.75888 37298 ft 443 kts 17°
2026-04-26 13:51 53.80581 14.80113 37306 ft 444 kts 17°
2026-04-26 13:51 53.86190 14.84316 37328 ft 443 kts 17°
2026-04-26 13:52 53.91811 14.88540 37315 ft 442 kts 17°
2026-04-26 13:52 53.97432 14.92777 37320 ft 442 kts 17°
2026-04-26 13:53 54.03051 14.97024 37322 ft 442 kts 17°
2026-04-26 13:53 54.08671 15.01280 37349 ft 441 kts 17°
2026-04-26 13:54 54.14270 15.05524 37312 ft 439 kts 17°
2026-04-26 13:54 54.19864 15.09776 37317 ft 440 kts 17°
2026-04-26 13:55 54.27309 15.15454 37314 ft 440 kts 17°
2026-04-26 13:56 54.36623 15.22590 37305 ft 436 kts 17°
2026-04-26 13:56 54.42137 15.26831 37307 ft 437 kts 17°
2026-04-26 13:57 54.47689 15.31114 37303 ft 437 kts 17°
2026-04-26 13:57 54.53238 15.35408 37297 ft 437 kts 17°
2026-04-26 13:58 54.58775 15.39705 37296 ft 435 kts 17°
2026-04-26 13:58 54.64293 15.44000 37292 ft 435 kts 17°
2026-04-26 13:59 54.69814 15.48311 37283 ft 435 kts 17°
2026-04-26 13:59 54.75331 15.52631 37290 ft 435 kts 17°
2026-04-26 14:00 54.86337 15.61287 37281 ft 433 kts 17°
2026-04-26 14:01 54.91769 15.65675 37271 ft 438 kts 23°
2026-04-26 14:01 54.96905 15.71598 37267 ft 443 kts 25°
2026-04-26 14:02 55.02032 15.77565 37268 ft 443 kts 26°
2026-04-26 14:02 55.07153 15.83553 37265 ft 443 kts 26°
2026-04-26 14:03 55.12273 15.89559 37261 ft 443 kts 26°
2026-04-26 14:03 55.17395 15.95587 37262 ft 444 kts 26°
2026-04-26 14:04 55.22517 16.01634 37265 ft 444 kts 26°
2026-04-26 14:04 55.27627 16.07685 37276 ft 442 kts 26°
2026-04-26 14:05 55.32700 16.13712 37261 ft 440 kts 26°
2026-04-26 14:05 55.37781 16.19768 37245 ft 441 kts 26°
2026-04-26 14:06 55.42819 16.25791 37245 ft 441 kts 26°
2026-04-26 14:06 55.47892 16.31874 37235 ft 441 kts 26°
2026-04-26 14:07 55.52946 16.37955 37230 ft 439 kts 26°
2026-04-26 14:07 55.57988 16.44040 37233 ft 439 kts 26°
2026-04-26 14:08 55.63030 16.50144 37229 ft 439 kts 26°
2026-04-26 14:08 55.68068 16.56264 37229 ft 439 kts 26°
2026-04-26 14:09 55.73106 16.62401 37266 ft 438 kts 26°
2026-04-26 14:09 55.78096 16.68501 37219 ft 434 kts 26°
2026-04-26 14:10 55.83075 16.74607 37215 ft 435 kts 26°
2026-04-26 14:10 55.88046 16.80722 37214 ft 434 kts 26°
2026-04-26 14:11 55.95503 16.89931 37247 ft 435 kts 26°
2026-04-26 14:11 56.00447 16.96062 37200 ft 435 kts 26°
2026-04-26 14:12 56.05414 17.02240 37200 ft 435 kts 26°
2026-04-26 14:12 56.10385 17.08442 37195 ft 435 kts 26°
2026-04-26 14:13 56.17839 17.17781 37195 ft 435 kts 26°
2026-04-26 14:14 56.22787 17.24006 37179 ft 433 kts 26°
2026-04-26 14:14 56.27718 17.30227 37196 ft 433 kts 26°
2026-04-26 14:15 56.32657 17.36480 37197 ft 435 kts 26°
2026-04-26 14:15 56.37618 17.42781 37189 ft 436 kts 26°
2026-04-26 14:16 56.42574 17.49097 37231 ft 436 kts 26°
2026-04-26 14:16 56.47528 17.55430 37202 ft 435 kts 27°
2026-04-26 14:17 56.52434 17.61722 37191 ft 435 kts 27°
2026-04-26 14:17 56.57372 17.68076 37179 ft 435 kts 27°
2026-04-26 14:18 56.62296 17.74432 37182 ft 435 kts 27°
2026-04-26 14:18 56.67235 17.80829 37203 ft 435 kts 27°
2026-04-26 14:19 56.72157 17.87226 37179 ft 434 kts 27°
2026-04-26 14:19 56.77036 17.93586 37175 ft 435 kts 27°
2026-04-26 14:20 56.81951 18.00014 37173 ft 435 kts 27°
2026-04-26 14:20 56.86867 18.06466 37172 ft 435 kts 27°
2026-04-26 14:21 56.91779 18.12932 37183 ft 434 kts 27°
2026-04-26 14:21 56.96672 18.19397 37165 ft 434 kts 27°
2026-04-26 14:22 57.01566 18.25883 37165 ft 434 kts 27°
2026-04-26 14:22 57.05630 18.31286 37161 ft 434 kts 27°
2026-04-26 14:23 57.11318 18.38872 37156 ft 434 kts 27°
2026-04-26 14:23 57.15413 18.44353 37159 ft 434 kts 28°
2026-04-26 14:24 57.20291 18.50901 37157 ft 434 kts 28°
2026-04-26 14:24 57.25138 18.57429 37150 ft 434 kts 28°
2026-04-26 14:25 57.30019 18.64025 37149 ft 434 kts 28°
2026-04-26 14:25 57.34893 18.70634 37137 ft 434 kts 28°
2026-04-26 14:26 57.39760 18.77256 37136 ft 434 kts 28°
2026-04-26 14:26 57.44635 18.83910 37133 ft 434 kts 28°
2026-04-26 14:27 57.49498 18.90571 37132 ft 434 kts 28°
2026-04-26 14:27 57.54361 18.97256 37178 ft 434 kts 28°
2026-04-26 14:28 57.59199 19.03927 37157 ft 432 kts 29°
2026-04-26 14:28 57.64026 19.10607 37123 ft 431 kts 29°
2026-04-26 14:29 57.68844 19.17295 37127 ft 431 kts 29°
2026-04-26 14:29 57.73629 19.23962 37117 ft 431 kts 29°
2026-04-26 14:30 57.78439 19.30685 37113 ft 431 kts 29°
2026-04-26 14:30 57.83249 19.37432 37147 ft 431 kts 29°
2026-04-26 14:31 57.88066 19.44212 37117 ft 433 kts 29°
2026-04-26 14:31 57.92885 19.51017 37111 ft 433 kts 29°
2026-04-26 14:32 57.97698 19.57837 37108 ft 433 kts 29°
2026-04-26 14:32 58.02507 19.64676 37108 ft 433 kts 29°
2026-04-26 14:33 58.07288 19.71498 37134 ft 433 kts 30°
2026-04-26 14:33 58.12103 19.78392 37109 ft 435 kts 30°
2026-04-26 14:34 58.16924 19.85320 37097 ft 435 kts 30°
2026-04-26 14:34 58.21738 19.92261 37097 ft 435 kts 30°
2026-04-26 14:35 58.26549 19.99221 37089 ft 435 kts 30°
2026-04-26 14:35 58.31357 20.06202 37128 ft 435 kts 30°
2026-04-26 14:36 58.36176 20.13225 37085 ft 437 kts 30°
2026-04-26 14:36 58.40999 20.20278 37086 ft 437 kts 30°
2026-04-26 14:37 58.45815 20.27346 37078 ft 437 kts 31°
2026-04-26 14:37 58.50629 20.34434 37078 ft 437 kts 31°
2026-04-26 14:38 58.55412 20.41498 37100 ft 437 kts 31°
2026-04-26 14:38 58.60242 20.48655 37058 ft 440 kts 31°
2026-04-26 14:39 58.65079 20.55849 37048 ft 440 kts 31°
2026-04-26 14:39 58.69915 20.63065 37048 ft 440 kts 31°
2026-04-26 14:40 58.74748 20.70302 37043 ft 440 kts 31°
2026-04-26 14:40 58.79580 20.77564 37068 ft 440 kts 31°
2026-04-26 14:41 58.84385 20.84809 37033 ft 442 kts 31°
2026-04-26 14:41 58.89223 20.92132 37031 ft 442 kts 32°
2026-04-26 14:42 58.93630 21.00614 37018 ft 450 kts 40°
2026-04-26 14:42 58.97902 21.09475 37017 ft 450 kts 40°
2026-04-26 14:43 59.02168 21.18361 37041 ft 450 kts 40°
2026-04-26 14:43 59.06430 21.27273 37014 ft 450 kts 40°
2026-04-26 14:44 59.10687 21.36208 37000 ft 450 kts 40°
2026-04-26 14:44 59.14918 21.45125 37002 ft 451 kts 40°
2026-04-26 14:45 59.19172 21.54126 36979 ft 451 kts 41°
2026-04-26 14:45 59.23415 21.63140 36982 ft 451 kts 41°
2026-04-26 14:46 59.27655 21.72182 36984 ft 451 kts 41°
2026-04-26 14:46 59.29607 21.77055 36962 ft 460 kts 53°
2026-04-26 14:46 59.31072 21.82673 36999 ft 463 kts 56°
2026-04-26 14:47 59.34082 21.93745 36966 ft 464 kts 55°
2026-04-26 14:47 59.37133 22.04908 36956 ft 462 kts 55°
2026-04-26 14:47 59.38632 22.10406 36424 ft 456 kts 54°
2026-04-26 14:48 59.40126 22.15895 35712 ft 457 kts 54°
2026-04-26 14:48 59.41621 22.21404 35017 ft 457 kts 54°
2026-04-26 14:48 59.43110 22.26906 34359 ft 456 kts 54°
2026-04-26 14:48 59.44597 22.32413 33615 ft 456 kts 53°
2026-04-26 14:49 59.46084 22.37936 32803 ft 455 kts 53°
2026-04-26 14:49 59.47562 22.43433 31997 ft 454 kts 52°
2026-04-26 14:49 59.49034 22.48926 31187 ft 453 kts 52°
2026-04-26 14:49 59.50500 22.54409 30386 ft 451 kts 51°
2026-04-26 14:50 59.51956 22.59871 29502 ft 449 kts 51°
2026-04-26 14:50 59.53407 22.65329 28531 ft 448 kts 51°
2026-04-26 14:50 59.54852 22.70770 27592 ft 449 kts 53°
2026-04-26 14:50 59.56281 22.76171 26596 ft 450 kts 53°
2026-04-26 14:51 59.57729 22.81657 25579 ft 451 kts 53°
2026-04-26 14:51 59.59177 22.87152 24616 ft 451 kts 54°
2026-04-26 14:51 59.60613 22.92619 23845 ft 446 kts 54°
2026-04-26 14:51 59.62033 22.98036 22982 ft 440 kts 54°
2026-04-26 14:52 59.63429 23.03380 22040 ft 435 kts 55°
2026-04-26 14:52 59.64809 23.08671 21153 ft 430 kts 55°
2026-04-26 14:52 59.66168 23.13895 20319 ft 424 kts 56°
2026-04-26 14:52 59.67509 23.19062 19523 ft 419 kts 56°
2026-04-26 14:53 59.68831 23.24166 18756 ft 414 kts 57°
2026-04-26 14:53 59.70135 23.29213 18012 ft 409 kts 57°
2026-04-26 14:53 59.71406 23.34138 17345 ft 404 kts 57°
2026-04-26 14:53 59.72673 23.39063 16667 ft 399 kts 57°
2026-04-26 14:54 59.73925 23.43938 15997 ft 394 kts 57°
2026-04-26 14:54 59.75161 23.48763 15351 ft 390 kts 57°
2026-04-26 14:54 59.76376 23.53521 14739 ft 385 kts 57°
2026-04-26 14:54 59.77580 23.58240 14191 ft 380 kts 57°
2026-04-26 14:55 59.78765 23.62894 13615 ft 377 kts 58°
2026-04-26 14:55 59.79945 23.67539 12845 ft 376 kts 58°
2026-04-26 14:55 59.81119 23.72173 12191 ft 374 kts 58°
2026-04-26 14:55 59.82284 23.76779 11535 ft 372 kts 58°
2026-04-26 14:56 59.83440 23.81358 10903 ft 369 kts 58°
2026-04-26 14:56 59.84581 23.85888 10513 ft 361 kts 58°
2026-04-26 14:56 59.85679 23.90265 10407 ft 347 kts 57°
2026-04-26 14:56 59.86734 23.94472 10283 ft 333 kts 57°
2026-04-26 14:57 59.87748 23.98522 10165 ft 320 kts 57°
2026-04-26 14:57 59.88722 24.02420 10051 ft 309 kts 57°
2026-04-26 14:57 59.89660 24.06182 9932 ft 298 kts 56°
2026-04-26 14:57 59.90555 24.09776 9817 ft 288 kts 56°
2026-04-26 14:58 59.91433 24.13306 9692 ft 279 kts 56°
2026-04-26 14:58 59.92287 24.16745 9561 ft 275 kts 56°
2026-04-26 14:58 59.93134 24.20162 9422 ft 273 kts 56°
2026-04-26 14:58 59.93976 24.23564 9050 ft 273 kts 56°
2026-04-26 14:59 59.94799 24.26894 8752 ft 270 kts 56°
2026-04-26 14:59 59.95628 24.30255 8417 ft 269 kts 56°
2026-04-26 14:59 59.96457 24.33614 8056 ft 272 kts 56°
2026-04-26 14:59 59.97017 24.35885 7866 ft 277 kts 56°
2026-04-26 15:00 59.98163 24.40550 7499 ft 280 kts 56°
2026-04-26 15:00 59.99021 24.44048 7243 ft 279 kts 56°
2026-04-26 15:00 59.99872 24.47524 6979 ft 278 kts 56°
2026-04-26 15:00 60.00709 24.50945 6715 ft 277 kts 56°
2026-04-26 15:01 60.01550 24.54391 6473 ft 276 kts 56°
2026-04-26 15:01 60.02389 24.57835 6226 ft 274 kts 56°
2026-04-26 15:01 60.03226 24.61270 5979 ft 273 kts 57°
2026-04-26 15:01 60.04051 24.64664 5714 ft 272 kts 57°
2026-04-26 15:02 60.04876 24.68065 5489 ft 270 kts 57°
2026-04-26 15:02 60.05686 24.71413 5313 ft 262 kts 57°
2026-04-26 15:02 60.06468 24.74650 5194 ft 253 kts 57°
2026-04-26 15:02 60.07224 24.77777 5067 ft 244 kts 56°
2026-04-26 15:03 60.07953 24.80796 5022 ft 239 kts 56°
2026-04-26 15:03 60.08677 24.83806 4872 ft 240 kts 56°
2026-04-26 15:03 60.09392 24.86778 4601 ft 239 kts 56°
2026-04-26 15:03 60.10110 24.89768 4391 ft 238 kts 56°
2026-04-26 15:04 60.10829 24.92764 4198 ft 236 kts 56°
2026-04-26 15:04 60.11534 24.95709 4019 ft 231 kts 56°
2026-04-26 15:04 60.12222 24.98584 3822 ft 226 kts 56°
2026-04-26 15:04 60.12893 25.01395 3637 ft 221 kts 56°
2026-04-26 15:05 60.13549 25.04144 3459 ft 220 kts 56°
2026-04-26 15:05 60.13773 25.05081 3404 ft 220 kts 56°
2026-04-26 15:05 60.14882 25.09643 3117 ft 212 kts 50°
2026-04-26 15:05 60.15902 25.11425 3061 ft 186 kts 17°
2026-04-26 15:06 60.17151 25.11753 3003 ft 181 kts 351°
2026-04-26 15:06 60.18337 25.11005 2778 ft 181 kts 338°
2026-04-26 15:06 60.19492 25.09977 2480 ft 181 kts 337°
2026-04-26 15:06 60.20620 25.08925 2286 ft 178 kts 336°
2026-04-26 15:07 60.22858 25.06754 1868 ft 176 kts 335°
2026-04-26 15:07 60.23919 25.05703 1627 ft 164 kts 335°
2026-04-26 15:07 60.24915 25.04706 1358 ft 154 kts 336°
2026-04-26 15:08 60.25840 25.03774 1093 ft 142 kts 336°
2026-04-26 15:08 60.26642 25.02987 1072 ft 123 kts 336°
2026-04-26 15:08 60.27411 25.02221 924 ft 126 kts 333°
2026-04-26 15:08 60.28191 25.01402 790 ft 125 kts 332°
2026-04-26 15:09 60.28951 25.00606 641 ft 121 kts 334°
2026-04-26 15:09 60.29704 24.99839 449 ft 126 kts 333°
2026-04-26 15:09 60.30493 24.99057 237 ft 132 kts 329°
2026-04-26 15:09 60.31294 24.98230 164 ft 117 kts 330°
2026-04-26 15:10 60.31815 24.97693 154 ft 54 kts 333°
2026-04-26 15:10 60.31919 24.97586 156 ft 48 kts 333°
2026-04-26 15:10 60.32338 24.97158 162 ft 25 kts 333°
2026-04-26 15:10 60.32375 24.96946 167 ft 17 kts 228°
2026-04-26 15:11 60.32332 24.96847 168 ft 0 kts 227°
2026-04-26 15:11 60.32329 24.96842 168 ft 3 kts 227°
2026-04-26 15:12 60.32307 24.96791 168 ft 12 kts 229°
2026-04-26 15:12 60.32221 24.96765 168 ft 16 kts 150°
2026-04-26 15:12 60.32081 24.96922 169 ft 19 kts 149°
2026-04-26 15:12 60.32001 24.97013 169 ft 20 kts 152°
2026-04-26 15:13 60.31880 24.97138 169 ft 19 kts 152°
2026-04-26 15:13 60.31782 24.97230 169 ft 6 kts 182°
2026-04-26 15:13 60.31763 24.97181 169 ft 5 kts 242°
2026-04-26 15:13 60.31750 24.97134 169 ft 1 kts 243°
2026-04-26 15:14 60.31749 24.97129 169 ft 1 kts 243°
2026-04-26 15:14 60.31748 24.97125 169 ft 0 kts 243°